Location: Lourdes
(43.1000°N, 0.0500°W)
Time: 09:17:50
(UTC+00:00)

YAOGAN-30 F - Visible Passes

Search period start: 16 June 2021 00:00
Search period end: 26 June 2021 00:00
Orbit: 596 x 600 km, 35.0° (Epoch: 16 June)

Date Brightness Start Highest point End Pass type
(mag) Time Alt. Az. Time Alt. Az. Time Alt. Az.
16 Jun ? 20:55:36 10° WSW 20:59:05 22° SSW 21:01:15 16° SSE visible
17 Jun ? 21:05:18 10° WSW 21:08:15 17° SSW 21:09:54 15° S visible
18 Jun ? 21:15:28 10° SW 21:17:23 13° SSW 21:18:34 11° S visible
